| time (UTC) | temp C | wind direction | speed KPH | gust KPH | rain 1hr cm | rain 24hr cm | rain mn cm | humidity % | barometer mb |
| 20260508190253 | 11 | 205 | 3.2 | 17.7 | 0.00 | 0.00 | 0.00 | 41 | 1007.6 |
| 20260508184753 | 11 | 296 | 6.4 | 19.3 | 0.00 | 0.00 | 0.00 | 37 | 1007.6 |
| 20260508183249 | 12 | 5 | 6.4 | 25.7 | 0.00 | 0.00 | 0.00 | 40 | 1007.7 |
| 20260508181747 | 11 | 342 | 4.8 | 16.1 | 0.00 | 0.00 | 0.00 | 45 | 1007.8 |
| 20260508181019 | 10 | 332 | 6.4 | 17.7 | 0.00 | 0.00 | 0.00 | 43 | 1008.0 |
| 20260508174747 | 10 | 340 | 0.0 | 8.0 | 0.00 | 0.00 | 0.00 | 43 | 1007.9 |
| 20260508173249 | 10 | 337 | 6.4 | 16.1 | 0.00 | 0.00 | 0.00 | 45 | 1007.9 |
| 20260508172514 | 10 | 355 | 4.8 | 16.1 | 0.00 | 0.00 | 0.00 | 43 | 1008.0 |
| 20260508170244 | 10 | 315 | 1.6 | 14.5 | 0.00 | 0.00 | 0.00 | 44 | 1008.0 |
| 20260508164745 | 10 | 11 | 4.8 | 17.7 | 0.00 | 0.00 | 0.00 | 44 | 1008.1 |
| 20260508164014 | 9 | 178 | 1.6 | 12.9 | 0.00 | 0.00 | 0.00 | 47 | 1008.4 |
| 20260508161745 | 8 | 0 | 1.6 | 9.7 | 0.00 | 0.00 | 0.00 | 50 | 1008.4 |
| 20260508160244 | 9 | 329 | 3.2 | 12.9 | 0.00 | 0.00 | 0.00 | 50 | 1008.5 |
| 20260508154743 | 9 | 343 | 3.2 | 17.7 | 0.00 | 0.00 | 0.00 | 50 | 1008.4 |
| 20260508154016 | 9 | 5 | 6.4 | 19.3 | 0.00 | 0.00 | 0.00 | 48 | 1008.4 |
| 20260508152514 | 9 | 350 | 6.4 | 16.1 | 0.00 | 0.00 | 0.00 | 50 | 1008.2 |
| 20260508150244 | 8 | 270 | 3.2 | 17.7 | 0.00 | 0.00 | 0.00 | 49 | 1008.2 |
| 20260508144743 | 8 | 22 | 4.8 | 17.7 | 0.00 | 0.00 | 0.00 | 47 | 1008.3 |
| 20260508143243 | 9 | 239 | 3.2 | 11.3 | 0.00 | 0.00 | 0.00 | 47 | 1008.1 |
| 20260508141738 | 9 | 44 | 4.8 | 19.3 | 0.00 | 0.00 | 0.00 | 49 | 1008.1 |
| 20260508140236 | 10 | 355 | 4.8 | 16.1 | 0.00 | 0.00 | 0.00 | 45 | 1008.2 |
| 20260508135502 | 10 | 302 | 4.8 | 17.7 | 0.00 | 0.00 | 0.00 | 46 | 1008.0 |
| 20260508133229 | 10 | 346 | 3.2 | 19.3 | 0.00 | 0.00 | 0.00 | 47 | 1008.0 |
| 20260508131729 | 10 | 22 | 8.0 | 22.5 | 0.00 | 0.00 | 0.00 | 45 | 1008.2 |
| 20260508130230 | 9 | 320 | 1.6 | 20.9 | 0.00 | 0.00 | 0.00 | 47 | 1008.1 |
| 20260508124730 | 8 | 142 | 6.4 | 20.9 | 0.00 | 0.00 | 0.00 | 48 | 1008.3 |
| 20260508124000 | 7 | 150 | 3.2 | 17.7 | 0.00 | 0.00 | 0.00 | 53 | 1008.3 |
| 20260508121727 | 5 | 12 | 4.8 | 17.7 | 0.00 | 0.00 | 0.00 | 60 | 1008.2 |
| 20260508120224 | 3 | 73 | 4.8 | 14.5 | 0.00 | 0.00 | 0.00 | 73 | 1008.1 |
| 20260508114726 | 1 | 329 | 0.0 | 0.0 | 0.00 | 0.00 | 0.00 | 94 | 1008.3 |
| 20260508113219 | 0 | 328 | 0.0 | 0.0 | 0.00 | 0.00 | 0.00 | 97 | 1008.0 |
| 20260508111717 | 0 | 9 | 0.0 | 0.0 | 0.00 | 0.00 | 0.00 | 97 | 1007.9 |
| 20260508110216 | -1 | 9 | 0.0 | 0.0 | 0.00 | 0.00 | 0.00 | 95 | 1007.8 |
| 20260508105448 | -1 | 9 | 0.0 | 0.0 | 0.00 | 0.03 | 0.00 | 95 | 1007.8 |
| 20260508103947 | -1 | 9 | 0.0 | 0.0 | 0.00 | 0.03 | 0.00 | 94 | 1007.7 |
| 20260508101712 | -1 | 9 | 0.0 | 0.0 | 0.00 | 0.03 | 0.00 | 94 | 1007.7 |
| 20260508100212 | -1 | 9 | 0.0 | 0.0 | 0.00 | 0.03 | 0.00 | 94 | 1007.6 |
| 20260508094712 | -1 | 9 | 0.0 | 0.0 | 0.00 | 0.03 | 0.00 | 94 | 1007.5 |
| 20260508093941 | -1 | 9 | 0.0 | 0.0 | 0.00 | 0.03 | 0.00 | 94 | 1007.4 |
| 20260508091707 | -1 | 9 | 0.0 | 0.0 | 0.00 | 0.03 | 0.00 | 94 | 1007.4 |
| 20260508090208 | -1 | 9 | 0.0 | 0.0 | 0.00 | 0.03 | 0.00 | 94 | 1007.2 |
| 20260508084704 | -1 | 9 | 0.0 | 0.0 | 0.00 | 0.03 | 0.00 | 93 | 1007.2 |
| 20260508083203 | -1 | 9 | 0.0 | 0.0 | 0.00 | 0.03 | 0.00 | 93 | 1007.3 |
| 20260508082437 | -1 | 9 | 0.0 | 0.0 | 0.00 | 0.03 | 0.00 | 93 | 1007.4 |
| 20260508080208 | -1 | 9 | 0.0 | 0.0 | 0.00 | 0.03 | 0.00 | 92 | 1007.0 |
| 20260508080202 | -1 | 9 | 0.0 | 0.0 | 0.00 | 0.03 | 0.00 | 93 | 1007.2 |
| 20260508073203 | -1 | 9 | 0.0 | 0.0 | 0.00 | 0.03 | 0.00 | 92 | 1007.0 |
| 20260508071706 | -1 | 9 | 0.0 | 0.0 | 0.00 | 0.03 | 0.00 | 92 | 1007.1 |
| 20260508070158 | -1 | 9 | 0.0 | 0.0 | 0.00 | 0.03 | 0.00 | 92 | 1007.3 |
| 20260508064656 | -1 | 9 | 0.0 | 0.0 | 0.00 | 0.03 | 0.00 | 91 | 1007.3 |
| 20260508063150 | -1 | 9 | 0.0 | 0.0 | 0.00 | 0.03 | 0.00 | 91 | 1007.3 |
| 20260508062420 | -1 | 9 | 0.0 | 0.0 | 0.00 | 0.03 | 0.00 | 90 | 1007.3 |
| 20260508060142 | 0 | 9 | 0.0 | 0.0 | 0.00 | 0.03 | 0.00 | 90 | 1007.3 |
| 20260508054644 | 0 | 9 | 0.0 | 0.0 | 0.00 | 0.03 | 0.00 | 89 | 1007.5 |
| 20260508053137 | 0 | 9 | 0.0 | 0.0 | 0.00 | 0.03 | 0.00 | 89 | 1007.4 |
| 20260508052422 | 0 | 9 | 0.0 | 0.0 | 0.00 | 0.03 | 0.00 | 88 | 1007.4 |
| 20260508050132 | 0 | 9 | 0.0 | 0.0 | 0.00 | 0.03 | 0.00 | 87 | 1007.8 |
| 20260508044633 | 0 | 9 | 0.0 | 0.0 | 0.00 | 0.03 | 0.00 | 86 | 1007.8 |
| 20260508043127 | 0 | 9 | 0.0 | 0.0 | 0.00 | 0.03 | 0.00 | 85 | 1007.8 |
| 20260508041626 | 0 | 9 | 0.0 | 0.0 | 0.00 | 0.03 | 0.00 | 84 | 1007.9 |
| 20260508040127 | 1 | 9 | 0.0 | 0.0 | 0.00 | 0.03 | 0.00 | 83 | 1007.9 |
| 20260508034626 | 1 | 9 | 0.0 | 0.0 | 0.00 | 0.03 | 0.03 | 83 | 1007.9 |
| 20260508033125 | 1 | 9 | 0.0 | 0.0 | 0.00 | 0.03 | 0.03 | 82 | 1007.7 |
| 20260508031626 | 2 | 9 | 0.0 | 0.0 | 0.00 | 0.03 | 0.03 | 81 | 1007.9 |
| 20260508030126 | 2 | 9 | 0.0 | 0.0 | 0.00 | 0.03 | 0.03 | 80 | 1007.7 |
| 20260508024625 | 2 | 9 | 0.0 | 0.0 | 0.00 | 0.03 | 0.03 | 79 | 1007.8 |
| 20260508023125 | 3 | 9 | 0.0 | 0.0 | 0.00 | 0.03 | 0.03 | 77 | 1007.8 |
| 20260508021622 | 3 | 9 | 0.0 | 0.0 | 0.00 | 0.03 | 0.03 | 74 | 1007.7 |
| 20260508020119 | 4 | 9 | 0.0 | 0.0 | 0.00 | 0.03 | 0.03 | 76 | 1007.6 |
| 20260508014619 | 5 | 9 | 0.0 | 0.0 | 0.00 | 0.03 | 0.03 | 74 | 1007.6 |
| 20260508013119 | 5 | 9 | 0.0 | 0.0 | 0.00 | 0.03 | 0.03 | 70 | 1007.4 |
| 20260508011620 | 6 | 9 | 0.0 | 1.6 | 0.00 | 0.05 | 0.03 | 70 | 1007.2 |
| 20260508010114 | 6 | 9 | 3.2 | 4.8 | 0.00 | 0.05 | 0.03 | 68 | 1007.2 |
| 20260508004613 | 7 | 9 | 1.6 | 4.8 | 0.00 | 0.08 | 0.03 | 64 | 1006.9 |
| 20260508003108 | 8 | 9 | 3.2 | 11.3 | 0.00 | 0.08 | 0.03 | 61 | 1006.8 |
| 20260508001609 | 8 | 0 | 3.2 | 6.4 | 0.00 | 0.10 | 0.03 | 56 | 1006.6 |
| 20260508000101 | 9 | 345 | 3.2 | 14.5 | 0.00 | 0.10 | 0.03 | 51 | 1006.5 |
| 20260507234602 | 10 | 314 | 3.2 | 14.5 | 0.00 | 0.10 | 0.03 | 46 | 1006.3 |
| 20260507233828 | 10 | 10 | 4.8 | 16.1 | 0.00 | 0.10 | 0.03 | 42 | 1006.2 |
| 20260507231555 | 11 | 17 | 4.8 | 17.7 | 0.00 | 0.10 | 0.03 | 42 | 1005.8 |
| 20260507230050 | 11 | 314 | 3.2 | 19.3 | 0.00 | 0.10 | 0.03 | 40 | 1005.6 |
| 20260507224551 | 11 | 22 | 8.0 | 19.3 | 0.00 | 0.10 | 0.03 | 40 | 1005.4 |
| 20260507223044 | 12 | 29 | 4.8 | 19.3 | 0.00 | 0.10 | 0.03 | 37 | 1005.3 |
| 20260507221543 | 12 | 84 | 4.8 | 20.9 | 0.00 | 0.10 | 0.03 | 37 | 1005.1 |
| 20260507220039 | 12 | 5 | 6.4 | 17.7 | 0.00 | 0.10 | 0.03 | 36 | 1005.2 |
| 20260507214544 | 12 | 340 | 4.8 | 22.5 | 0.00 | 0.10 | 0.03 | 37 | 1005.1 |
| 20260507214539 | 12 | 254 | 4.8 | 19.3 | 0.00 | 0.10 | 0.03 | 35 | 1005.1 |
| 20260507211539 | 13 | 11 | 8.0 | 24.1 | 0.00 | 0.10 | 0.03 | 35 | 1005.3 |
| 20260507210039 | 13 | 269 | 8.0 | 24.1 | 0.00 | 0.10 | 0.03 | 35 | 1005.0 |
| 20260507205309 | 13 | 138 | 4.8 | 19.3 | 0.00 | 0.10 | 0.03 | 33 | 1004.9 |
| 20260507203041 | 13 | 237 | 3.2 | 12.9 | 0.00 | 0.13 | 0.03 | 36 | 1004.9 |
| 20260507201535 | 13 | 19 | 4.8 | 22.5 | 0.00 | 0.25 | 0.03 | 38 | 1004.9 |
| 20260507200030 | 13 | 355 | 4.8 | 20.9 | 0.00 | 0.33 | 0.03 | 35 | 1005.0 |
| 20260507194530 | 13 | 159 | 8.0 | 27.4 | 0.00 | 0.36 | 0.03 | 36 | 1005.3 |
| 20260507193024 | 13 | 5 | 6.4 | 25.7 | 0.00 | 0.41 | 0.03 | 35 | 1005.3 |